ARIANE 5 DEB (SYLDA), 44037

Orbit data source: Space-Track

ARIANE 5 DEB (SYLDA), 44037 is space debris in HEO originally from a launch on Tue, 05 Feb 2019 UTC launched from the French Guiana (FRGUI). Debris objects in space refer to the collection of defunct objects orbiting the Earth. Examples of debris include non-operational satellites, rocket bodies, and fragments generated from explosions, collisions, or faulty payload assembly.

Loading next visibility...
Identifier
44037, 2019-007D
Orbit
HEO
Country
Flag of FRFR
Related business
Manufacturer
ADS/Bremen
Mission
Spacecraft
Bus & Motor
SYLDA 5, Unknown motor
Mass
440 kg wet, 440 kg dry
Launch date (UTC)
2019-02-05 (7 years ago)
Launch vehicle
Unknown
Launch site
French Guiana (FRGUI)
Object type
Payload
Rocket body
Debris
Shape & HBR
Cyl, 2.8 m
Radar Cross Section
27.391 m², Large (>1 m²)

Expand to show TLE details & history
Last TLE update: 22 hours ago

TLE from 22 hours ago
0 ARIANE 5 DEB (SYLDA)
1 44037U 19007D   25348.68656615  .00009224  00000-0  15116-2 0  9993
2 44037   2.9178 284.4806 7160968 151.6978 280.4680  2.44577364 58499
Epoch: 2025-12-14T16:28Z
TLE epoch observation values (Epoch: 2025-12-14T16:28:39.315Z)
Latitude
0.00002°
Longitude
-46.30497°
Altitude
24,294.813 km
Speed
2.977 km/s
True Right ascension
18h 57m 49s
True Declination
0° 00' 00"
Sunlit
Object was in daylight at epoch
Visualization orbit readout
Latitude
Unknown
Longitude
Unknown
Altitude
Unknown
Speed
Unknown
Apparent Right ascension
Unknown
Apparent Declination
Unknown
Sunlit
N/A
Visualization observer readout
Local Sidereal Time
13:24:37
Azimuth
Unknown
Elevation
Unknown
Doppler factor
Unknown
Orbital elements
Apogee altitude
33,564.481 km
Perigee altitude
229.787 km
Semi-major axis
23,275.271 km
Eccentricity
0.7161
Inclination
2.9178°
RAAN
284.4806°
Arg. of periapsis
151.6978°
True anomaly
208.35558°
Mean anomaly
280.468°
Eccentric anomaly
243.6892°
Mean motion
0.61122 °/min
Orbital period
588.98 mins
BSTAR
0.0015116
Loading maneuver chart data...
Computing Atmospheric mass density...
Loading historical data...
Loading historical data...
Loading historical data...
Loading historical data...
Loading historical data...
Loading historical data...
Loading historical data...
Other satellites on launch #7 in the year 2019 (2019-02-05 UTC)

Documentation

Showing up to 5 results
|